Find Starlink 34913

NORAD ID: 65369 Int'l Des: 2025-190 Owner: SPXS Country: US Constellation: starlink operational
LEOCIRCULAR

当前视图

正在加载3D地球...

关于 Starlink 34913

正在加载描述...

即将过境

Passes for default location (London). Set your location on the main map for personalized predictions.

高度历史

Loading altitude history...

两行轨道根数

1 65369U 25190U 26149.47745421 .01086020 00000-0 31471-1 0 9996
2 65369 53.1592 152.9639 0001229 105.9640 254.1497 15.32229824 42129
Epoch: May 29, 2026 • Age: 20 hours

当前状态

高度 477.4 km
速度 7.63 km/s
星下点 -39.22°S, 10.12°E
发射日期 Aug 28, 2025
运行时间 0.7 years
类型 internet

技术详情

分类 Payload
质量 575.00 kg
干质量 530.00 kg
总质量 575.00 kg
长度 0.30 m
直径 4.10 m
跨度 29.00 m
形状 Box + pan
制造商 SPXS
平台类型 Starlink V2MO
阶段状态 In Orbit
所有者/国家 SPXS/US

Most Searched